Weather History for Modesto, CA

Change the Weather History Date:

Thursday, April 24, 2014

  Actual Average Record
Temperature  
Mean Temperature 65 °F -  
Max Temperature 77 °F 77 °F 90 °F (1966)
Min Temperature 52 °F 51 °F 36 °F (1964)
Degree Days  
Heating Degree Days 0 3  
Month to date heating degree days 74 114  
Since 1 July heating degree days 1933 2119  
Cooling Degree Days 0 2  
Month to date cooling degree days 47 25  
Year to date cooling degree days 47 30  
Growing Degree Days 14 (Base 50)    
Moisture  
Dew Point 45 °F    
Average Humidity 56    
Maximum Humidity 83    
Minimum Humidity 29    
Precipitation  
Precipitation 0.00 in 0.03 in 0.22 in (1978)
Month to date precipitation 0.59 0.81  
Year to date precipitation 5.14 7.84  
Since 1 July precipitation 6.63 12.20  
Snow  
Snow 0.00 in - - ()
Month to date snowfall 0.0  
Since 1 July snowfall 0.0  
Snow Depth -    
Sea Level Pressure  
Sea Level Pressure 30.02 in    
Wind  
Wind Speed 9 mph (NNW)    
Max Wind Speed 18 mph    
Max Gust Speed 21 mph    
Visibility 10 miles    
Events      
T = Trace of Precipitation, MM = Missing Value Source: NWS Daily Summary

Daily Weather History Graph

Daily Weather History Graph

Search for Another Location

Airport:

Trip Planner

Search our weather history database for the weather conditions in past years. The results will help you decide how hot, cold, wet, or windy it might be!

Date:

Astronomy

Apr. 24, 2014 Rise Set
Actual Time 6:16 AM PDT 7:47 PM PDT
Civil Twilight 5:49 AM PDT 8:15 PM PDT
Nautical Twilight 5:15 AM PDT 8:48 PM PDT
Astronomical Twilight 4:40 AM PDT 9:23 PM PDT
Moon 3:25 AM PDT (4/24) 3:14 PM PDT (4/24)
Length of Visible Light 14h 26m
Length of Day
13h 30m
Waning Crescent, 23% of the Moon is Illuminated
Apr 24
Waning Crescent
Apr 28
New
May 6
First Quarter
May 14
Full
May 21
Last Quarter

Hourly Weather History & Observations

Time (PDT) Temp. Dew Point Humidity Pressure Visibility Wind Dir Wind Speed Gust Speed Precip Events Conditions
12:53 AM 57.0 °F 44.1 °F 62% 30.06 in 10.0 mi NNE 4.6 mph - N/A   Clear
1:53 AM 53.1 °F 45.0 °F 74% 30.06 in 10.0 mi North 5.8 mph - N/A   Clear
2:53 AM 53.1 °F 45.0 °F 74% 30.04 in 10.0 mi NNE 5.8 mph - N/A   Clear
3:53 AM 53.1 °F 45.0 °F 74% 30.05 in 10.0 mi North 4.6 mph - N/A   Clear
4:53 AM 53.1 °F 46.0 °F 77% 30.05 in 10.0 mi NNE 4.6 mph - N/A   Clear
5:53 AM 52.0 °F 46.0 °F 80% 30.04 in 10.0 mi North 5.8 mph - N/A   Clear
6:53 AM 54.0 °F 46.9 °F 77% 30.06 in 10.0 mi North 5.8 mph - N/A   Clear
7:53 AM 57.9 °F 46.9 °F 67% 30.07 in 10.0 mi NW 11.5 mph - N/A   Clear
8:53 AM 61.0 °F 48.0 °F 62% 30.09 in 10.0 mi NNW 10.4 mph - N/A   Clear
9:53 AM 64.9 °F 46.0 °F 50% 30.09 in 10.0 mi WNW 12.7 mph - N/A   Clear
10:53 AM 68.0 °F 44.1 °F 42% 30.08 in 10.0 mi WNW 11.5 mph - N/A   Clear
11:53 AM 71.1 °F 43.0 °F 36% 30.07 in 10.0 mi NW 11.5 mph - N/A   Clear
12:53 PM 73.0 °F 41.0 °F 31% 30.04 in 10.0 mi North 12.7 mph 17.3 mph N/A   Clear
1:53 PM 73.0 °F 42.1 °F 33% 30.01 in 10.0 mi NNW 12.7 mph 18.4 mph N/A   Clear
2:53 PM 73.0 °F 42.1 °F 33% 30.00 in 10.0 mi NW 12.7 mph - N/A   Clear
3:53 PM 75.0 °F 42.1 °F 31% 29.97 in 10.0 mi WNW 13.8 mph - N/A   Clear
4:53 PM 73.9 °F 39.9 °F 29% 29.95 in 10.0 mi WNW 17.3 mph - N/A   Clear
5:53 PM 71.1 °F 44.1 °F 38% 29.95 in 10.0 mi WNW 16.1 mph - N/A   Clear
6:53 PM 68.0 °F 42.1 °F 39% 29.95 in 10.0 mi NW 18.4 mph 25.3 mph N/A   Clear
7:53 PM 64.0 °F 48.0 °F 56% 29.95 in 10.0 mi NW 12.7 mph - N/A   Clear
8:53 PM 63.0 °F 48.9 °F 60% 29.96 in 10.0 mi NW 12.7 mph - N/A   Clear
9:53 PM 61.0 °F 50.0 °F 67% 29.98 in 10.0 mi NW 15.0 mph - N/A   Clear
10:53 PM 61.0 °F 50.0 °F 67% 29.97 in 10.0 mi NW 11.5 mph - N/A   Partly Cloudy
11:53 PM 60.1 °F 51.1 °F 72% 29.96 in 10.0 mi NW 15.0 mph - N/A   Partly Cloudy